Back to catalog

YUNYAO-1 15

AliveWeatherPO
NORAD 60745·PAYLOAD·🇨🇳 China
This satellite name has not been confirmed by official sources yet.

Launched Aug 29, 2024 from Yellow Sea Launch Area

Loading…

Next Passes (next 24 hours)

TLE

FreshSource: Space-Track

Epoch: Sep 14, 2026, 15:41 UTC

1 60745U 24153A   26257.65384247  .00079376  00000-0  11049-2 0  9997
2 60745  97.6838  45.5053 0004688 166.6257 193.5122 15.56678740113980

Track YUNYAO-1 15 in real time with AllMySat

Download on the App Store